Location: ?
(35.3436°N, 139.3168°E)
Time: 19:57:02
(UTC+00:00)

Meteor 2-10 Rocket - Pass Details

Date: 29 October 2020
Orbit: 733 x 885 km, 81.2° (Epoch: 24 November)

Event Time Altitude Azimuth Distance (km) Brightness Sun altitude
Rises 19:56:09 0° 354° (N) 3,171 6.6 -14.0°
Reaches altitude 10° 19:58:29 10° 357° (N) 2,252 5.8 -13.6°
Maximum altitude 20:03:30 68° 81° (E) 810 3.9 -12.5°
Drops below altitude 10° 20:08:38 10° 164° (SSE) 2,302 6.3 -11.5°
Sets 20:11:02 0° 167° (SSE) 3,246 7.1 -11.0°
